Flag for Finland Weather past 2 weeks in Helsinki, Finland

57 °F

Partly sunny.

Feels Like: 57 °F
Forecast: 39 / 49 °F
Wind: 3 mph from West

Location: Helsinki Malmi Airport

Current Time: Oct 4, 2015 at 6:54:23 PM

Latest Report: Oct 4, 2015 at 6:20 PM

Visibility: N/A

Pressure: 29.83 "Hg

Humidity: 67%

Dew point: 46 °F

Location of HelsinkiLocation

Historic Weather in Helsinki — Graph


Helsinki temperature yesterday

Maximum temperature yesterday: 57 °F (at 2:20 PM)
Minimum temperature yesterday: 39 °F (at 9:20 PM)
Average temperature yesterday: 50 °F

Past Weeks' High & Low Weather Summary

High63 °F (Sep 20, 3:20 PM)100% (Sep 20, 3:50 AM)30.66 "Hg (Sep 20, 3:50 AM)
Low36 °F (Sep 27, 7:20 AM)41% (Oct 3, 3:50 PM)29.56 "Hg (Oct 2, 3:50 PM)
Average53 °F83%30.03 "Hg
* Reported Sep 19 5:20 PM — Oct 4 5:20 PM, Helsinki, Weather by CustomWeather, © 2015

Note: Actual official high and low records may vary slightly from our data, if they occured in-between our weather recording intervals... More about our weather records


Helsinki weather history for previous 24 hours

Time TempWeatherWind HumidityBarometerVisibility
5:20 PM
Sun, Oct 4
57 °FPartly sunny.7 mph67%29.83 "HgN/A
4:50 PM59 °FPartly sunny.9 mph63%29.83 "HgN/A
4:20 PM57 °FBroken clouds.7 mph82%29.83 "HgN/A
3:50 PM57 °FPartly sunny.8 mph82%29.83 "HgN/A
3:20 PM57 °FBroken clouds.9 mph82%29.83 "HgN/A
2:50 PM57 °FBroken clouds.9 mph88%29.83 "HgN/A
2:20 PM57 °FBroken clouds.10 mph82%29.86 "HgN/A
1:50 PM57 °FBroken clouds.10 mph82%29.86 "HgN/A
1:20 PM57 °FBroken clouds.13 mph82%29.86 "HgN/A
12:50 PM57 °FBroken clouds.12 mph82%29.86 "HgN/A
12:20 PM55 °FPartly sunny.12 mph88%29.86 "HgN/A
11:50 AM55 °FPartly sunny.8 mph88%29.89 "HgN/A
11:20 AM54 °FPartly sunny.8 mph94%29.89 "HgN/A
10:50 AM54 °FPartly sunny.8 mph88%29.92 "HgN/A
10:20 AM54 °FBroken clouds.7 mph88%29.92 "HgN/A
9:50 AM54 °FPartly sunny.7 mph82%29.92 "HgN/A
9:20 AM54 °FBroken clouds.7 mph77%29.92 "HgN/A
8:50 AM52 °FPartly sunny.5 mph82%29.92 "HgN/A
8:20 AM52 °FPassing clouds.5 mph82%29.92 "HgN/A
7:20 AM52 °FOvercast.5 mph94%29.95 "HgN/A
6:50 AM39 °FPartly cloudy.3 mph100%29.95 "HgN/A
6:20 AM39 °FPassing clouds.2 mph100%29.98 "HgN/A
5:50 AM37 °FPassing clouds.1 mph100%29.98 "HgN/A
5:20 AM37 °FFog.No wind100%29.98 "HgN/A
4:50 AM37 °FFog.No wind100%30.01 "Hg2 mi
4:20 AM37 °FFog.No wind100%30.01 "Hg1 mi
3:50 AM36 °FPassing clouds.No wind100%30.01 "HgN/A
3:20 AM37 °FFog.No wind100%30.04 "Hg1 mi
2:50 AM37 °FFog.No wind93%30.04 "Hg3 mi
2:20 AM37 °FClear.No wind100%30.04 "Hg10 mi
1:50 AM39 °FClear.No wind93%30.04 "Hg10 mi
1:20 AM37 °FFog.No wind100%30.07 "Hg2 mi
12:20 AM37 °FFog.No wind100%30.04 "Hg1 mi
11:50 PM
Sat, Oct 3
39 °FClear.1 mph93%30.04 "Hg10 mi
11:20 PM39 °FClear.No wind93%30.07 "Hg10 mi
10:50 PM39 °FClear.No wind100%30.04 "Hg10 mi
10:20 PM39 °FClear.No wind93%30.04 "Hg10 mi
9:50 PM41 °FClear.No wind93%30.04 "Hg10 mi
9:20 PM39 °FClear.No wind93%30.04 "Hg10 mi
8:50 PM41 °FClear.No wind87%30.04 "Hg10 mi
8:20 PM43 °FClear.1 mph87%30.04 "Hg10 mi
7:50 PM45 °FClear.No wind81%30.04 "Hg10 mi
7:20 PM48 °FSunny.No wind71%30.04 "Hg10 mi
6:50 PM50 °FSunny.1 mph67%30.04 "Hg10 mi
6:20 PM55 °FSunny.3 mph51%30.04 "Hg10 mi
Weather by CustomWeather, © 2015

See weather overviewHow to use our weather pages